Content
SEND FEEDBACK

Daily
Averages
Monthly
Summary
United States of America

BOSTON, MASSACHUSETTS


Home > North America > United States > Massachusetts
Elevation: 1 meter     Latitude: 42 22N     Longitude: 071 02W

WEATHER
 
SELECT A DAY
Number of Records: 207,001;   Date Range: 1/1/95 - 12/18/14
 
SHARE

PRINT THIS DATA

[ ← Previous Day ]
WEATHER ALMANAC - 26 MARCH, 2013
[ Next Day → ]
[ °F ]   °C
Weather ElementAverageHighLow
Temperature4.8 °C10 °C (3:54 pm)1 °C (2:28 am)
Dewpoint-4.4 °C0 °C (3:54 am)-8.9 °C (6:54 pm)
Humidity56.4 %89 % (2:54 am)28 % (5:54 pm)
Barometer1004.1 hPa1008.5 hPa (11:54 pm)1000.3 hPa (12:54 am)
Wind Speed18 km/h27.8 km/h (1:39 am)
Wind Gust37 km/h (1:39 am)
Weather ElementAverage
Visibility14.6 km
Wind DirectionWNW (297.2 °)

Weather ElementTotal
Precipitation3.56 mm
Heating Degree Days12.8 (Base 18.3)
Averaged from 29 records on 26 March, 2013
WEATHER CONDITIONS BREAKOUT
WIND DIRECTION BREAKOUT
WEATHER BY HOUR - 26 MARCH, 2013
[ °F ]   °C
Local TimeTemperatureDewpointHumidityBarometerVisibilityWind DirectionWind SpeedGust SpeedPrecipitationEventsConditions
12:54 AM2.8 °C-1.1 °C76 %1000.3 hPa16.1 kmNorth (360°)20.4 km/hOvercast
1:32 AM2 °C-1 °C81 %1000.7 hPa4.8 kmNorth (10°)25.9 km/h0.51 mmSnowLight Snow
1:39 AM2 °C-1 °C81 %1000.7 hPa4 kmNorth (360°)27.8 km/h37 km/h0.76 mmSnowLight Snow
1:54 AM1.7 °C-1.1 °C82 %1000.3 hPa14.5 kmNorth (360°)22.2 km/h0.76 mmMostly Cloudy
2:28 AM1 °C-1 °C87 %1001 hPa3.2 kmNorth (10°)24.1 km/h37 km/h0.51 mmSnowLight Snow
2:40 AM1 °C-1 °C87 %1001 hPa12.9 kmNorth (360°)18.5 km/h0.51 mmSnowLight Snow
2:54 AM1.1 °C-0.6 °C89 %1001 hPa16.1 kmNorth (360°)16.7 km/h0.51 mmMostly Cloudy
3:12 AM1 °C-1 °C87 %1001 hPa16.1 kmNorth (350°)14.8 km/h0 mmOvercast
3:54 AM1.7 °C0 °C89 %1001 hPa16.1 kmNorth (350°)14.8 km/h0 mmOvercast
4:54 AM1.7 °C-2.2 °C76 %1001.4 hPa16.1 kmNNW (330°)16.7 km/hScattered Clouds
5:54 AM1.7 °C-3.3 °C70 %1002.4 hPa16.1 kmNNW (330°)16.7 km/hMostly Cloudy
6:54 AM1.7 °C-3.3 °C70 %1003.4 hPa16.1 kmNorth (350°)18.5 km/hMostly Cloudy
7:54 AM2.8 °C-3.9 °C62 %1004.1 hPa16.1 kmNorth (350°)16.7 km/hMostly Cloudy
8:54 AM3.9 °C-3.9 °C57 %1004.4 hPa16.1 kmNorth (360°)24.1 km/h33.3 km/hMostly Cloudy
9:54 AM5 °C-5.6 °C47 %1005.1 hPa16.1 kmNorth (350°)22.2 km/hScattered Clouds
10:54 AM6.1 °C-6.7 °C40 %1005.1 hPa16.1 kmNorth (360°)14.8 km/hScattered Clouds
11:54 AM7.2 °C-5.6 °C40 %1005.4 hPa16.1 kmCalmPartly Cloudy
12:54 PM7.8 °C-6.1 °C37 %1005.1 hPa16.1 kmNNW (330°)18.5 km/hScattered Clouds
1:54 PM7.8 °C-5.6 °C39 %1005.1 hPa16.1 kmWNW (300°)22.2 km/hMostly Cloudy
2:54 PM8.9 °C-6.1 °C34 %1004.7 hPa16.1 kmWest (280°)16.7 km/hScattered Clouds
3:54 PM10 °C-6.7 °C31 %1005.1 hPa16.1 kmWNW (300°)20.4 km/hScattered Clouds
4:54 PM9.4 °C-7.8 °C29 %1005.1 hPa16.1 kmWest (280°)14.8 km/hScattered Clouds
5:54 PM9.4 °C-8.3 °C28 %1005.4 hPa16.1 kmNW (320°)14.8 km/hScattered Clouds
6:54 PM8.9 °C-8.9 °C28 %1006.1 hPa16.1 kmNW (320°)14.8 km/hScattered Clouds
7:54 PM8.3 °C-8.3 °C30 %1007.1 hPa16.1 kmNW (320°)14.8 km/hScattered Clouds
8:54 PM7.2 °C-7.8 °C34 %1007.5 hPa16.1 kmNW (320°)18.5 km/hPartly Cloudy
9:54 PM6.1 °C-6.7 °C40 %1008.1 hPa16.1 kmWNW (300°)18.5 km/hPartly Cloudy
10:54 PM5.6 °C-6.7 °C41 %1008.1 hPa16.1 kmWNW (300°)16.7 km/h33.3 km/hPartly Cloudy
11:54 PM4.4 °C-6.7 °C45 %1008.5 hPa16.1 kmWNW (300°)16.7 km/hPartly Cloudy
Hourly data recorded from KBOS, located 0 kilometers away from Boston, Massachusetts







STORIES FROM OUR PARTNERS